Flag for U.S.A. Weather past 2 weeks in Peoria, Illinois, U.S.A.

60 °F

Passing clouds.

Feels Like: 60 °F
Forecast: 58 / 78 °F
Wind: No wind

Location: Greater Peoria Regional Airport

Current Time: Oct 7, 2015 at 12:03:36 AM

Latest Report: Oct 6, 2015 at 10:54 PM

Visibility: 10 mi

Pressure: 30.12 "Hg

Humidity: 80%

Dew point: 54 °F

Location of PeoriaLocation

Historic Weather in Peoria — Graph


Peoria temperature yesterday

Maximum temperature yesterday: 76 °F (at 4:54 PM)
Minimum temperature yesterday: 59 °F (at 9:54 PM)
Average temperature yesterday: 65 °F

Past Weeks' High & Low Weather Summary

High85 °F (Sep 23, 2:54 PM)90% (Sep 29, 3:54 AM)30.30 "Hg (Sep 29, 3:54 AM)
Low46 °F (Oct 1, 6:54 AM)28% (Sep 23, 4:54 PM)29.91 "Hg (Sep 29, 3:54 AM)
Average65 °F64%30.14 "Hg
* Reported Sep 21 9:54 PM — Oct 6 9:54 PM, Peoria, Weather by CustomWeather, © 2015

Note: Actual official high and low records may vary slightly from our data, if they occured in-between our weather recording intervals... More about our weather records


Peoria weather history for previous 24 hours

Time TempWeatherWind HumidityBarometerVisibility
9:54 PM
Tue, Oct 6
59 °FClear.No wind84%30.11 "Hg10 mi
8:54 PM61 °FClear.No wind78%30.10 "Hg10 mi
7:54 PM62 °FClear.No wind78%30.11 "Hg10 mi
6:54 PM66 °FSunny.No wind68%30.11 "Hg10 mi
5:54 PM71 °FSunny.3 mph55%30.10 "Hg10 mi
4:54 PM76 °FSunny.3 mph42%30.10 "Hg10 mi
3:54 PM75 °FSunny.3 mph48%30.11 "Hg10 mi
2:54 PM72 °FPassing clouds.7 mph57%30.12 "Hg10 mi
1:54 PM71 °FPartly sunny.5 mph59%30.14 "Hg10 mi
12:54 PM69 °FPassing clouds.No wind63%30.16 "Hg10 mi
11:54 AM67 °FOvercast.6 mph68%30.19 "Hg10 mi
10:54 AM65 °FPassing clouds.9 mph73%30.18 "Hg10 mi
9:54 AM62 °FMostly cloudy.6 mph80%30.18 "Hg8 mi
8:54 AM61 °FLow clouds.6 mph83%30.18 "Hg4 mi
7:54 AM60 °FLight rain. Fog.No wind86%30.16 "Hg3 mi
6:54 AM60 °FLight rain. Fog.5 mph86%30.15 "Hg5 mi
5:54 AM60 °FFog.5 mph86%30.15 "Hg5 mi
4:54 AM60 °FFog.No wind86%30.13 "Hg5 mi
3:54 AM60 °FFog.3 mph86%30.12 "Hg5 mi
2:54 AM60 °FOvercast.No wind83%30.13 "Hg6 mi
1:54 AM61 °FPassing clouds.5 mph81%30.12 "Hg6 mi
12:54 AM61 °FOvercast.5 mph81%30.13 "Hg6 mi
Weather by CustomWeather, © 2015

See weather overviewHow to use our weather pages